Vancouver, British Columbia

11:48 AM PDT on June 28, 2017 (GMT -0700)
Vancouver International Airport

Weather History for CYVR - October, 2012

Change the Weather History Date:

Wednesday, October 3, 2012

  Actual Average Record
Temperature  
Mean Temperature 50 °F -  
Max Temperature 59 °F 55 °F 63 °F (2014)
Min Temperature 42 °F 43 °F 38 °F (2013)
Degree Days  
Heating Degree Days 14    
Moisture  
Dew Point 41 °F    
Average Humidity 65    
Maximum Humidity 87    
Minimum Humidity 36    
Precipitation  
Precipitation 0.00 in 0.16 in - ()
Sea Level Pressure  
Sea Level Pressure 30.39 in    
Wind  
Wind Speed 6 mph ()    
Max Wind Speed 16 mph    
Max Gust Speed -    
Visibility 19.9 miles    
Events      
Averages and records for this station are not official NWS values.
T = Trace of Precipitation, MM = Missing Value Source: Averaged Metar Reports

Daily Weather History Graph

Daily Weather History Graph

Search for Another Location

Airport or City:

Trip Planner

Search our weather history database for the weather conditions in past years. The results will help you decide how hot, cold, wet, or windy it might be!

Date:

Astronomy

Oct. 03, 2012 Rise Set
Actual Time 7:16 AM PDT 6:45 PM PDT
Civil Twilight 6:44 AM PDT 7:17 PM PDT
Nautical Twilight 6:07 AM PDT 7:54 PM PDT
Astronomical Twilight 5:30 AM PDT 8:31 PM PDT
Moon 8:19 PM PDT (10/3) 11:06 AM PDT (10/3)
Length of Visible Light 12h 32m
Length of Day
11h 29m
Waning Gibbous, 88% of the Moon is Illuminated
Oct 3
Waning Gibbous
Oct 8
Last Quarter
Oct 15
New
Oct 21
First Quarter
Oct 29
Full

Hourly Weather History & Observations

Time (PDT) Temp. Windchill Dew Point Humidity Pressure Visibility Wind Dir Wind Speed Gust Speed Precip Events Conditions
12:00 AM 48.2 °F - 44.6 °F 87% 30.36 in 20.0 mi West 4.6 mph - N/A   Partly Cloudy
1:00 AM 46.4 °F 44.3 °F 41.0 °F 81% 30.38 in 20.0 mi NE 4.6 mph - N/A   Clear
2:00 AM 46.4 °F - 41.0 °F 81% 30.40 in 20.0 mi Calm Calm - N/A   Clear
3:00 AM 46.4 °F - 41.0 °F 81% 30.41 in 20.0 mi Calm Calm - N/A   Clear
4:00 AM 46.4 °F - 37.4 °F 71% 30.42 in 20.0 mi Calm Calm - N/A   Clear
5:00 AM 46 °F - 33 °F 48% 30.43 in 19 mi WSW 2.3 mph - -  
5:00 AM 46.4 °F 44.3 °F 32.0 °F 57% 30.43 in 20.0 mi West 4.6 mph - N/A   Clear
6:00 AM 44.6 °F - 33.8 °F 66% 30.44 in 20.0 mi Calm Calm - N/A   Clear
7:00 AM 44.6 °F - 33.8 °F 66% 30.44 in 20.0 mi Calm Calm - N/A   Partly Cloudy
8:00 AM 44.6 °F - 33.8 °F 66% 30.44 in 30.0 mi West 2.3 mph - N/A   Partly Cloudy
9:00 AM 51.8 °F - 46.4 °F 82% 30.45 in 30.0 mi WNW 6.9 mph - N/A   Partly Cloudy
10:00 AM 53.6 °F - 44.6 °F 72% 30.45 in 30.0 mi WNW 11.5 mph - N/A   Partly Cloudy
11:00 AM 56 °F - 43 °F 52% 30.45 in 28 mi WNW 12.7 mph - -   Clear
11:00 AM 57.2 °F - 42.8 °F 59% 30.45 in 30.0 mi WNW 12.7 mph - N/A   Partly Cloudy
12:00 PM 57.2 °F - 42.8 °F 59% 30.44 in 30.0 mi WNW 13.8 mph - N/A   Partly Cloudy
1:00 PM 57.2 °F - 41.0 °F 55% 30.43 in 30.0 mi WNW 13.8 mph - N/A   Clear
2:00 PM 59.0 °F - 42.8 °F 55% 30.40 in 30.0 mi WNW 12.7 mph - N/A   Clear
3:00 PM 59.0 °F - 41.0 °F 51% 30.38 in 30.0 mi NW 13.8 mph - N/A   Clear
4:00 PM 59.0 °F - 41.0 °F 51% 30.37 in 30.0 mi NW 16.1 mph - N/A   Partly Cloudy
5:00 PM 59 °F - 39 °F 36% 30.36 in 28 mi WNW 15.0 mph - -  
5:00 PM 59.0 °F - 39.2 °F 48% 30.36 in 30.0 mi WNW 16.1 mph - N/A   Clear
6:00 PM 55.4 °F - 42.8 °F 63% 30.35 in 30.0 mi NW 11.5 mph - N/A   Clear
7:00 PM 53.6 °F - 44.6 °F 72% 30.34 in 30.0 mi NW 10.4 mph - N/A   Partly Cloudy
8:00 PM 53.6 °F - 42.8 °F 67% 30.32 in 30.0 mi NW 10.4 mph - N/A   Partly Cloudy
9:00 PM 53.6 °F - 42.8 °F 67% 30.32 in 30.0 mi NNW 9.2 mph - N/A   Clear
10:00 PM 51.8 °F - 42.8 °F 71% 30.32 in 30.0 mi NW 5.8 mph - N/A   Clear
11:00 PM 49 °F - 42 °F 69% 30.32 in 28 mi WNW 8.1 mph - -  
11:00 PM 48.2 °F - 42.8 °F 82% 30.32 in 30.0 mi WNW 9.2 mph - N/A   Clear